Weather Roundup
Issued by NWS

Home | Current Version | Previous Version | Text Only | Print | Product List | Glossary On
Versions: 1 2 3 4 5 6 7 8 9 10 11 12 13 14 15 16 17 18 19 20 21 22 23 24 25 26 27 28 29 30 31 32 33 34 35 36 37 38 39 40 41 42 43 44 45 46 47 48 49 50
799
NZUS93 KARX 261710
HRRWXR

CURRENT HOURLY OBSERVATIONS ACROSS
MUCH OF THE UPPER MISSISSIPPI VALLEY
NATIONAL WEATHER SERVICE LA CROSSE WI
1200 PM CDT SUN MAR 26 2017


...SOUTHEAST MINNESOTA...


CITY           SKY/WX    TMP DP  RH WIND       PRES   REMARKS
ROCHESTER      CLOUDY    38  38 100 N9        29.88F FOG     WCI  31
ROCHESTER/MAYO CLOUDY    37  37 100 N3        29.90S
WINONA         CLOUDY    37  36  93 NE5       29.92R WCI  34
AUSTIN         CLOUDY    37  36  93 N6        29.88F FOG     WCI  33
ALBERT LEA     CLOUDY    37  37 100 N6        29.89F FOG     WCI  33
DODGE CENTER   CLOUDY    37  37 100 NE5       29.89F FOG     WCI  34
PRESTON        CLOUDY    38  36  95 N7        29.88F WCI  32
OWATONNA       CLOUDY    37  36  93 N6        29.90F FOG     WCI  33
FARIBAULT      CLOUDY    37  37 100 NE6       29.92S FOG     WCI  33
$$

...ELSEWHERE IN MINNESOTA...


CITY           SKY/WX    TMP DP  RH WIND       PRES   REMARKS
MINNEAPOLIS    CLOUDY    39  35  86 NE7       29.93F WCI  34
INTNL FALLS    CLOUDY    40  31  70 VRB3      29.97F
DULUTH         LGT RAIN  35  33  92 NE6       29.95F WCI  30
RED WING       CLOUDY    39  37  93 CALM      29.91F
REDWOOD FALLS  CLOUDY    41  36  82 N7        29.94S
MANKATO        CLOUDY    39  36  89 N8        29.92F WCI  33
WORTHINGTON    CLOUDY    39  37  92 N9        29.92F WCI  33
FAIRMONT       CLOUDY    38  37  97 N10       29.92S WCI  31
$$

...SOUTHWEST WISCONSIN...


CITY           SKY/WX    TMP DP  RH WIND       PRES   REMARKS
LA CROSSE      CLOUDY    41  38  89 N7        29.89F
PRAIRIE DU CHI CLOUDY    42  41  97 NW5       29.85F FOG
BOSCOBEL       LGT RAIN  43  41  93 VRB5      29.86F
LONE ROCK      CLOUDY    44  40  85 NE7       29.85F
PLATTEVILLE    CLOUDY    45  45 100 NE6       29.83F VSB 1/4
FORT MC COY    CLOUDY    38  37  99 E6        29.90S FOG     WCI  33
CAMP DOUGLAS   CLOUDY    39  37  93 NE5       29.88F FOG
MAUSTON-NEW LI CLOUDY    38  38  98 CALM      29.87F FOG
VIROQUA        CLOUDY    38  38 100 NE3       29.86S VSB 1/2
WIS DELLS      DRZL/FOG  38  38  99 NE7       29.86F VSB 1/2 WCI  33
$$

...ELSEWHERE IN WISCONSIN...


CITY           SKY/WX    TMP DP  RH WIND       PRES   REMARKS
MILWAUKEE      LGT RAIN  42  41  96 N3        29.85F VSB 1/4
MADISON        LGT RAIN  44  42  93 NE7       29.84F FOG
GREEN BAY      LGT RAIN  38  38 100 NE13      29.90F WCI  30
EAU CLAIRE     CLOUDY    38  36  92 NE7       29.91F WCI  33
BLACK RVR FLS  CLOUDY    38  38 100 E6        29.90S FOG     WCI  34
MEDFORD        DRIZZLE   36  35  95 E7        29.89F WCI  31
WAUSAU         CLOUDY    36  34  92 E9        29.89F WCI  29
WIS RAPIDS     CLOUDY    36  36 100 E10       29.90F FOG     WCI  28
MARSHFIELD     CLOUDY    36  34  92 E10       29.88F WCI  28
RICE LAKE      CLOUDY    37  36  96 CALM      29.94F
$$

...NORTHEAST IOWA...


CITY           SKY/WX    TMP DP  RH WIND       PRES   REMARKS
WATERLOO       CLOUDY    42  41  96 N10       29.86F FOG
DUBUQUE        FOG       45  45 100 NE9       29.82F VSB<1/4
DECORAH        FOG       39  39 100 N7        29.85F VSB 1/2 WCI  34
MASON CITY     CLOUDY    42  39  89 NE8       29.89S
CHARLES CITY   CLOUDY    41  41 100 NE9       29.87F FOG
OELWEIN        FOG       41  41 100 N8        29.85F VSB 3/4
$$

...ELSEWHERE IN IOWA...


CITY           SKY/WX    TMP DP  RH WIND       PRES   REMARKS
DES MOINES     CLOUDY    44  42  93 NW7       29.89S FOG
IOWA CITY      CLOUDY    50  49  96 N5        29.84S FOG
FORT DODGE     CLOUDY    41  37  87 NW6       29.91S
MARSHALLTOWN   CLOUDY    43  42  97 N7        29.86S
CEDAR RAPIDS   FOG       45  45 100 NW5       29.82S VSB 1/4
$$

...NORTHERN ILLINOIS...


CITY           SKY/WX    TMP DP  RH WIND       PRES   REMARKS
CHICAGO-OHARE  CLOUDY    58  54  86 CALM      29.82F
CHICAGO-MIDWAY CLOUDY    59  55  87 SW7       29.83F
MOLINE         CLOUDY    55  51  86 SW9       29.81S
ROCKFORD       CLOUDY    56  52  86 CALM      29.83F
PEORIA         CLOUDY    52  51  97 SW14      29.85S FOG
$$

NOTE: "FAIR" INDICATES FEW OR NO CLOUDS BELOW 12,000 FEET WITH NO
SIGNIFICANT WEATHER AND/OR OBSTRUCTIONS TO VISIBILITY. WIND
SPEEDS ARE IN MILES-PER-HOUR.




USA.gov is the U.S. government's official web portal to all federal, state and local government web resources and services.